User: anonymous   Login
Location: Unspecified
(0.0000°N, 0.0000°E)
Time: 09:20:57
(UTC+00:00)
Language:

APRIZESAT 6 - Orbit

View from above orbital plane
View from above orbital plane
View from above satellite
View from above satellite

Ground track
Ground track

The orbit data is extracted from the following two-line orbital elements,

1 37793U 11044F   17086.93810564 +.00000137 +00000-0 +30073-4 0  9995
2 37793 098.2754 213.8885 0046437 333.9421 143.2616 14.72184153301160
Epoch (UTC): 27 March 2017 22:30:52
Eccentricity: 0.0046437
inclination: 98.2754°
perigee height: 621 km
apogee height: 687 km
right ascension of ascending node: 213.8885°
argument of perigee: 333.9421°
revolutions per day: 14.72184153
mean anomaly at epoch: 143.2616°
orbit number at epoch: 30116

The dashed part of the orbit path shows where the satellite is in the earth's shadow,  

DLR